Regional Weather Roundup
Issued by NWS

Home | Current Version | Previous Version | Graphics & Text | Print | Product List | Glossary On
Versions: 1 2 3 4 5 6 7 8 9 10 11 12 13 14 15 16 17 18 19 20 21 22 23 24 25 26 27 28 29 30 31 32 33 34 35 36 37 38 39 40 41 42 43 44 45 46 47 48 49 50
000
ASUS45 KSLC 271010
RWRUT

UTAH REGIONAL WEATHER ROUNDUP
NATIONAL WEATHER SERVICE SALT LAKE CITY UT
400 AM MDT MON JUL 27 2015

UTZ001>011-023>025-271100-

NORTHERN UTAH

CITY           SKY/WX    TMP DP  RH WIND       PRES   REMARKS
BRIGHAM CITY   CLEAR     72  33  23 SW9       29.77R
HILL AFB       CLOUDY    80  29  15 S18       29.80F
LOGAN            N/A    N/A N/A N/A MISG      29.78S
OGDEN          PTCLDY    81  27  14 S18       29.77S
PROVO AIRPORT  CLEAR     66  39  37 S9        29.86F
SALT LAKE CITY PTCLDY    82  26  13 S20G26    29.78R
VERNAL         CLEAR     65  44  46 W6        29.93F
WENDOVER       CLEAR     73  37  27 NW17G23   29.79S
HEBER CITY     CLEAR     55  37  50 CALM      29.93F
WEST JORDAN    CLEAR     75  36  23 SE17      29.83S

$$

UTZ012>022-026-027-271100-

SOUTHERN/CENTRAL UTAH

CITY           SKY/WX    TMP DP  RH WIND       PRES   REMARKS
BLANDING       CLOUDY    69  49  47 SE3       30.12S
BRYCE CANYON   CLEAR     45  30  55 CALM      30.16F
CEDAR CITY     CLEAR     61  21  21 S8        29.99F
DELTA          CLEAR     66  26  21 S10       29.87F
HANKSVILLE     CLEAR     63  36  36 CALM      29.91R
MILFORD        CLEAR     63  27  25 S13       29.92F
MOAB/CYNLANDS  CLEAR     79  45  29 SE8       29.88S
PRICE          CLEAR     65  39  38 E3        29.97F
ST GEORGE      SUNNY     75  30  19 SE14      29.83S

$$

REGIONAL REPORTS     COLORADO/ARIZONA

CITY           SKY/WX    TMP DP  RH WIND       PRES   REMARKS
CRAIG, CO      CLEAR     53  44  71 SE6       30.05F
GRAND JUNCTION PTCLDY    72  48  42 SE18      29.94F
RIFLE          CLEAR     61  45  55 CALM      30.02S
MONTROSE       MOCLDY    67  49  52 S6        30.06F
CORTEZ         CLEAR     66  48  52 CALM      30.07F
PAGE, AZ       CLEAR     77  32  19 SW5       29.92
GRAND CANYON   CLEAR     45  30  55 CALM      30.15F
KINGMAN        CLEAR     75  30  19 S10       29.90S
FLAGSTAFF      CLEAR     52  34  50 CALM      30.20S

$$

REGIONAL REPORTS    NEVADA/IDAHO/WYOMING

CITY           SKY/WX    TMP DP  RH WIND       PRES   REMARKS
LAS VEGAS, NV  CLEAR     83  41  22 S13       29.71F
ELY            CLEAR     59  16  18 S12       29.97S
ELKO           MOCLDY    64  41  42 NW3       29.92R
POCATELLO, ID  CLEAR     62  43  49 SW20G26   29.86R
BURLEY         PTCLDY    60  43  53 W23G31    29.86R
EVANSTON, WY   PTCLDY    62  24  23 S9        30.01F
ROCK SPRINGS   PTCLDY    68  40  35 S7        30.00F
KEMMERER       CLEAR     55  28  35 S8        30.02F

$$



USA.gov is the U.S. government's official web portal to all federal, state and local government web resources and services.